TimePST,TemperatureF,Dew PointF,Humidity,Sea Level PressureIn,VisibilityMPH,Wind Direction,Wind SpeedMPH,Gust SpeedMPH,PrecipitationIn,Events,Conditions,WindDirDegrees,DateUTC
12:53 AM,46.0,43.0,89,30.11,10.0,Calm,Calm,-,N/A,,Overcast,0,2012-12-11 08:53:00
1:14 AM,46.4,42.8,87,30.08,10.0,Calm,Calm,-,N/A,,Overcast,0,2012-12-11 09:14:00
1:44 AM,46.4,42.8,87,30.07,10.0,ESE,4.6,-,N/A,,Overcast,120,2012-12-11 09:44:00
1:53 AM,45.0,42.1,90,30.06,10.0,East,4.6,-,N/A,,Overcast,100,2012-12-11 09:53:00
2:53 AM,45.0,39.9,82,30.02,10.0,ESE,5.8,-,N/A,,Overcast,120,2012-12-11 10:53:00
3:53 AM,44.1,39.0,82,29.99,10.0,ESE,5.8,-,N/A,,Overcast,110,2012-12-11 11:53:00
4:53 AM,44.1,39.0,82,29.94,10.0,ESE,8.1,-,N/A,,Overcast,110,2012-12-11 12:53:00
5:53 AM,44.1,39.9,85,29.91,10.0,ESE,5.8,-,N/A,,Overcast,110,2012-12-11 13:53:00
6:53 AM,45.0,41.0,86,29.89,10.0,ESE,5.8,-,N/A,,Overcast,110,2012-12-11 14:53:00
7:18 AM,44.6,41.0,87,29.88,10.0,ESE,4.6,-,N/A,,Overcast,120,2012-12-11 15:18:00
7:34 AM,46.4,41.0,81,29.88,10.0,ESE,6.9,-,N/A,,Overcast,120,2012-12-11 15:34:00
7:53 AM,45.0,41.0,86,29.87,10.0,ESE,5.8,-,N/A,,Overcast,120,2012-12-11 15:53:00
8:17 AM,46.4,41.0,81,29.88,10.0,East,4.6,-,N/A,,Overcast,100,2012-12-11 16:17:00
8:53 AM,46.0,41.0,83,29.87,10.0,ESE,4.6,-,N/A,,Overcast,110,2012-12-11 16:53:00
9:53 AM,46.0,41.0,83,29.82,10.0,ESE,9.2,-,N/A,,Overcast,120,2012-12-11 17:53:00
10:08 AM,46.4,41.0,81,29.81,10.0,SSE,5.8,-,N/A,,Overcast,160,2012-12-11 18:08:00
10:36 AM,46.4,41.0,81,29.80,10.0,South,6.9,-,N/A,,Overcast,170,2012-12-11 18:36:00
10:53 AM,46.9,41.0,80,29.80,10.0,South,4.6,-,N/A,,Overcast,170,2012-12-11 18:53:00
11:53 AM,46.0,41.0,83,29.76,10.0,South,6.9,-,0.01,Rain,Light Rain,180,2012-12-11 19:53:00
12:20 PM,46.4,41.0,81,29.75,8.0,SSW,8.1,-,0.01,Rain,Light Rain,200,2012-12-11 20:20:00
12:53 PM,46.0,41.0,83,29.73,10.0,South,8.1,-,0.04,Rain,Light Rain,190,2012-12-11 20:53:00
1:01 PM,46.4,41.0,81,29.72,9.0,South,10.4,18.4,0.01,Rain,Light Rain,180,2012-12-11 21:01:00
1:53 PM,46.0,41.0,83,29.70,10.0,South,10.4,18.4,0.04,Rain,Light Rain,170,2012-12-11 21:53:00
2:53 PM,45.0,41.0,86,29.67,10.0,SSE,8.1,-,0.04,Rain,Light Rain,160,2012-12-11 22:53:00
3:53 PM,45.0,39.9,82,29.65,10.0,SSE,4.6,-,0.00,,Overcast,160,2012-12-11 23:53:00
4:53 PM,45.0,39.0,80,29.64,10.0,South,6.9,-,0.00,Rain,Light Rain,170,2012-12-12 00:53:00
5:53 PM,45.0,39.9,82,29.64,10.0,Calm,Calm,-,0.00,,Overcast,0,2012-12-12 01:53:00
6:24 PM,44.6,39.2,81,29.63,10.0,SSE,3.5,-,0.00,Rain,Light Rain,160,2012-12-12 02:24:00
6:53 PM,45.0,41.0,86,29.63,10.0,South,4.6,-,0.01,Rain,Light Rain,180,2012-12-12 02:53:00
7:34 PM,44.6,41.0,87,29.63,10.0,SW,3.5,-,0.00,,Overcast,230,2012-12-12 03:34:00
7:53 PM,45.0,41.0,86,29.63,10.0,Calm,Calm,-,0.00,,Overcast,0,2012-12-12 03:53:00
8:13 PM,44.6,41.0,87,29.64,10.0,Calm,Calm,-,N/A,,Overcast,0,2012-12-12 04:13:00
8:22 PM,44.6,41.0,87,29.64,10.0,Calm,Calm,-,N/A,,Overcast,0,2012-12-12 04:22:00
8:31 PM,44.6,42.8,93,29.64,10.0,SW,3.5,-,N/A,,Overcast,220,2012-12-12 04:31:00
8:45 PM,44.6,41.0,87,29.64,10.0,WSW,3.5,-,N/A,,Overcast,250,2012-12-12 04:45:00
8:53 PM,45.0,42.1,90,29.65,10.0,WSW,4.6,-,N/A,,Overcast,240,2012-12-12 04:53:00
9:53 PM,45.0,42.1,90,29.66,10.0,WSW,3.5,-,0.00,,Overcast,250,2012-12-12 05:53:00
10:53 PM,43.0,39.9,89,29.68,10.0,Calm,Calm,-,N/A,,Partly Cloudy,0,2012-12-12 06:53:00
11:53 PM,44.1,41.0,89,29.70,10.0,Calm,Calm,-,N/A,,Mostly Cloudy,0,2012-12-12 07:53:00